{"data":{"norad_id":54376,"intl_designator":"2022-160E","name":"YAOGAN-36 03C","alt_names":[],"object_type":"PAYLOAD","status":"ACTIVE","operator":null,"country":"PRC","launch_date":"2022-11-27","launch_site_code":"XICLF","launch_vehicle":null,"mission":null,"orbit_class":"UNKNOWN","rcs_meters":null,"size_class":null,"mass_kg":null,"dimensions":null,"purposes":[],"wikipedia_slug":null,"has_3d_model":false,"image_url":null,"decayed_at":null,"tle_current":{"epoch":"2026-09-21T23:10:46.454016Z","epoch_age_seconds":35653,"freshness":"FRESH","line1":"1 54376U 22160E   26264.96581544  .00005681  00000+0  24038-3 0  9997","line2":"2 54376  35.0086  90.9645 0008673 176.7775 183.2997 15.22518912212815","mean_motion":15.22518912,"eccentricity":0.0008673,"inclination_deg":35.0086,"raan_deg":90.9645,"arg_perigee_deg":176.7775,"mean_anomaly_deg":183.2997,"bstar":0.00024038,"rev_number":21281,"period_min":94.580105944851,"perigee_km":492.28189247548,"apogee_km":504.20966604439,"semimajor_km":6876.3827792599,"source":"CELESTRAK","updated_at":"2026-09-22T09:00:25.145433Z"}}}